This is the latest recevied weather packets stored in our database for station/object YO8SHU-10. If no packets are shown the sender has not sent any weather packets the latest 10 day(s).
| Time | Temp. | Humidity | Pressure | Rain* | Wind** | Luminosity | Snow |
|---|---|---|---|---|---|---|---|
| 1788193833 | 30° C | 59% | 1020.7 hPa | - | - | - | - |
| 1788192033 | 33.33° C | 42% | 1020.8 hPa | - | - | - | - |
| 1788190233 | 36.11° C | 37% | 1020.9 hPa | - | - | - | - |
| 1788188432 | 37.22° C | 36% | 1020.9 hPa | - | - | - | - |
| 1788186632 | 35.56° C | 47% | 1021.2 hPa | - | - | - | - |
| 1788184832 | 33.89° C | 50% | 1021.1 hPa | - | - | - | - |
| 1788183032 | 33.89° C | 52% | 1021.2 hPa | - | - | - | - |
| 1788181232 | 33.89° C | 53% | 1021.1 hPa | - | - | - | - |
| 1788179432 | 34.44° C | 61% | 1021.6 hPa | - | - | - | - |
| 1788177632 | 34.44° C | 61% | 1021.7 hPa | - | - | - | - |
| 1788175832 | 33.89° C | 69% | 1021.9 hPa | - | - | - | - |
| 1788174032 | 32.78° C | 67% | 1022.2 hPa | - | - | - | - |
| 1788172231 | 32.78° C | 63% | 1022.7 hPa | - | - | - | - |
| 1788170431 | 31.67° C | 70% | 1022.9 hPa | - | - | - | - |
| 1788168631 | 31.67° C | 87% | 1023.2 hPa | - | - | - | - |
| 1788166831 | 30.56° C | 74% | 1023.2 hPa | - | - | - | - |
| 1788165031 | 28.89° C | 77% | 1023.5 hPa | - | - | - | - |
| 1788163231 | 28.33° C | 83% | 1023.8 hPa | - | - | - | - |
| 1788161431 | 26.67° C | 94% | 1023.7 hPa | - | - | - | - |
| 1788159646 | 26.11° C | 100% | 1023.8 hPa | - | - | - | - |
| 1788157831 | 25° C | 100% | 1023.7 hPa | - | - | - | - |
| 1788156030 | 23.33° C | 100% | 1023.7 hPa | - | - | - | - |
| 1788154230 | 23.89° C | 100% | 1023.8 hPa | - | - | - | - |
| 1788152430 | 24.44° C | 100% | 1023.8 hPa | - | - | - | - |
| 1788150630 | 22.78° C | 100% | 1023.6 hPa | - | - | - | - |
* Rain since midnight (hover to see other rain measurements)
** Current wind speed in m/s (hover to see current wind gust speed)